Other Public Products
Issued by NWS Grand Forks, ND

Home | Current Version | Previous Version | Text Only | Print | Product List | Glossary Off
Versions: 1 2 3 4 5 6 7 8 9 10 11 12 13 14 15 16 17 18 19 20 21 22 23 24 25 26 27 28 29 30 31 32 33 34 35 36 37 38 39 40 41 42 43 44 45 46 47 48 49 50

360
FPUS83 KFGF 232031
OPUFGF
PRAIRIE TO PINES WEATHER ROUNDUP
NATIONAL WEATHER SERVICE EASTERN NORTH DAKOTA/GRAND FORKS ND
200 PM CST FRI FEB 23 2018

 **SATELLITE DATA USED TO AUGMENT SKY COVER AT AUTOMATED STATIONS**
 *****  WEATHER ACROSS EASTERN NORTH DAKOTA  *****

CITY           SKY/WX    TMP DP  RH WIND       PRES   REMARKS
GRAND FORKS    FAIR      17   9  70 W13       30.20F WCI   4
GRND FORKS AFB FAIR      17   6  62 NW12      30.20F WCI   4
GRND FORKS NWS   N/A     17   9  72 NW6       30.18F WCI   8
BUXTON           N/A     16  13  86 W14         N/A  WCI   2
DEVILS LAKE    FAIR      11   5  77 W16       30.18F WCI  -6
FARGO          FAIR      17   9  70 W14       30.24R WCI   3
WAHPETON ARPT  FAIR      19  10  68 W12       30.25R WCI   7
$$

 *****  WEATHER ACROSS CENTRAL AND WESTERN NORTH DAKOTA  *****

CITY           SKY/WX    TMP DP  RH WIND       PRES   REMARKS
JAMESTOWN      FAIR      17   9  70 NW9       30.20F WCI   6
BISMARCK       FAIR      18   7  62 W7        30.23F WCI   9
MINOT          FAIR      18   7  62 SW14      30.16F WCI   4
MINOT AFB      FAIR      18   8  66 W14       30.14F WCI   4
GARRISON         N/A     12   5  73 W8        30.17F WCI   0
WILLISTON      FAIR       8   2  76 W8        30.16F WCI  -4
DICKINSON      FAIR      14   5  67 SW5       30.11F WCI   6
HETTINGER      FAIR      11   1  64 CALM      30.16F
$$

 *****  OTHER OBSERVATIONS NORTHEAST NORTH DAKOTA  *****

CITY           SKY/WX    TMP DP  RH WIND       PRES   REMARKS
WALHALLA       FAIR      18   9  68 VRB7G14   30.16F WCI   8
LANGDON        MOCLDY    14   9  79 W14       30.13F WCI  -1
CAVALIER         N/A     18   7  62 W8        30.17F WCI   7
GRAFTON        FAIR      14   7  73 W8        30.21F WCI   3
CANDO          FAIR      14   7  73 W20       30.17F WCI  -3
FORT TOTTEN      N/A     15   4  62 W7        29.95S WCI   5
ROLLA          FAIR      14   5  67 SW13      30.11F WCI   0
RUGBY          CLOUDY    14   9  79 W14       30.16F WCI  -1
 ***** THE ABOVE OBSERVATIONS ARE NON NWS ARE NOT QUALITY
        CONTROLLED AND MAY MIS-REPORT RAIN FOR SNOW...
$$

 *****  OTHER OBSERVATIONS SOUTHEAST NORTH DAKOTA *****

CITY           SKY/WX    TMP DP  RH WIND       PRES   REMARKS
COOPERSTOWN    FAIR      14   7  73 NW17      30.20S WCI  -3
VALLEY CITY    FAIR      14  10  85 NW17      30.22F WCI  -3
OAKES            N/A     14   5  67 NW12      30.24F WCI   0
GWINNER          N/A     18   7  62 NW14      30.24R WCI   4
SHEYENNE NWR     N/A     19   7  58 NW9       29.95S WCI   8
BUFFALO          N/A     14   6  68 S8          N/A  WCI   3
WYNDMERE       NOT AVBL
 ***** THE ABOVE OBSERVATIONS ARE NON NWS ARE NOT QUALITY
       CONTROLLED AND MAY MIS-REPORT RAIN FOR SNOW...
$$

  *****  WEATHER ACROSS NORTHERN MINNESOTA  *****

CITY           SKY/WX    TMP DP  RH WIND       PRES   REMARKS
FLAG ISLAND    FAIR      19  14  79 S7        30.07F WCI  10
WARROAD        FAIR      19   9  63 SW13      30.11S WCI   7
ROSEAU         FAIR      19   9  63 W10       30.13R WCI   8
HALLOCK        FAIR      18   9  68 W7        30.18F WCI   8
THF RVR FALLS  NOT AVBL
HALSTAD        NOT AVBL
FOSSTON        FAIR      21   7  53 SW9       30.17S WCI  11
BAUDETTE       FAIR      25  14  63 W7        30.08R WCI  17
WASKISH        CLOUDY    25  18  74 W12       30.11S WCI  14
CROOKSTON      FAIR      16   9  73 W8        30.22S WCI   5
$$
  *****  WEATHER ACROSS CENTRAL AND WEST MINNESOTA  *****

CITY           SKY/WX    TMP DP  RH WIND       PRES   REMARKS
BEMIDJI        LGT SNOW  24  15  69 W15       30.12R WCI  11
PARK RAPIDS    FAIR      26  19  74 W15       30.12S WCI  14
WADENA         FAIR      25  18  74 W9        30.15S WCI  15
DETROIT LAKES  FAIR      19  12  73 NW9       30.19S WCI   9
MOORHEAD       FAIR      16   7  67 NW12      30.24S WCI   3
FERGUS FALLS   FAIR      18  10  73 NW10      30.22F WCI   6
ELBOW LAKE     MOCLDY    18  14  82 NW10      30.22S WCI   6
MORRIS MN      FAIR      21  16  79 W10       30.23R WCI  10
STAPLES        FAIR      27  18  69 W10       30.15S WCI  17
WHEATON        FLURRIES  19  10  68 W9        30.27S WCI   9
$$
  *****  WEATHER ELSEWHERE ACROSS MINNESOTA  *****

CITY           SKY/WX    TMP DP  RH WIND       PRES   REMARKS
DULUTH         FAIR      32  22  66 W15       30.06R WCI  22
INTRNTL FALLS  FAIR      28  20  71 VRB5      30.06F WCI  23
ELY            CLOUDY    27  19  74 W9        30.04R WCI  17
CLOQUET        PTSUNNY   30  19  64 W7        30.08S WCI  23
BRAINERD       PTSUNNY   31  21  66 NW9       30.13S WCI  23
HIBBING        CLOUDY    26  20  77 NW8       30.07R WCI  18
ALEXANDRIA     FAIR      22  17  81 W14       30.19R WCI   9
SAINT CLOUD    FAIR      30  21  69 W10       30.17R WCI  21
MINNEAPOLIS    FAIR      32  22  66 W9        30.19S WCI  24
$$

  *****  WEATHER ACROSS SOUTH DAKOTA  *****

CITY           SKY/WX    TMP DP  RH WIND       PRES   REMARKS
SIOUX FALLS    CLOUDY    20  17  88 NW12      30.27S WCI   8
BROOKINGS      CLOUDY    22  17  81 W13       30.24F WCI  10
WATERTOWN      CLOUDY    20  17  88 W9        30.22S WCI   9
HURON          FAIR      18  11  74 NW6       30.29S WCI  10
SISSETON         N/A     22  11  62 NW9       30.23S WCI  12
ABERDEEN       FAIR      20  10  65 W8        30.27S WCI  10
MITCHELL       FAIR      20  13  74 W6        30.30F WCI  12
PIERRE         FAIR      13   5  70 NW7       30.25F WCI   3
MOBRIDGE       FAIR      16   5  62 NW5       30.23S WCI   9
RAPID CITY     FAIR      13   7  77 SE12      30.13F WCI  -1
$$

  *****  SOME WEATHER IN NEARBY STATES *****

CITY           SKY/WX    TMP DP  RH WIND       PRES   REMARKS
GLASGOW MT     FAIR       2  -4  76 SE14      30.06F WCI -16
GREAT FALLS MT FAIR      20   9  62 SW28G39   29.91F WCI   2
CHEYENNE WY    CLOUDY    24  18  77 S12G20    29.94F WCI  13
SCOTTSBLUFF NE FAIR      23  12  62 E12       30.09F WCI  12
OMAHA NE       FAIR      28  22  78 N12       30.30F WCI  18
DES MOINES IA  PTSUNNY   35  26  69 NW13      30.27F
DAVENPORT IA   CLOUDY    39  31  72 W16       30.24S
CHICAGO IL     CLOUDY    39  35  86 W10       30.17S
EAU CLAIRE WI  CLOUDY    28  23  81 W14       30.16R WCI  17
LA CROSSE WI   FAIR      34  25  69 W14       30.20R WCI  25
$$

  *****  SOME NATIONAL WEATHER *****

CITY           SKY/WX    TMP DP  RH WIND       PRES   REMARKS
LA GUARDIA NY  LGT RAIN  38  35  89 NE12      30.38F VSB 1/2
RALEIGH NC     FAIR      68  57  68 CALM      30.39F
ATLANTA GA     FAIR      76  61  59 S10       30.32F
NEW ORLEANS LA PTSUNNY   79  71  76 S8        30.18F
OKLAHOMA CITY  LGT RAIN  37  36  96 N10       30.15F FOG
ALBUQUERQUE NM FAIR      51  16  24 S9        29.94F
SALT LAKE CITY LGT SNOW  27  21  78 NW15      30.05R VSB 3/4 WCI  15
LOS ANGELES CA FAIR      55  27  34 W17       30.22S
BOISE ID       FAIR      26  12  55 NW16      30.29F WCI  14
SEATTLE WA     CLOUDY    33  21  61 S6        30.40S
$$

*** WEATHER ACROSS MANITOBA...SASKATCHEWAN AND ONTARIO ***
                ***ONTARIO***

CITY           SKY/WX    TMP DP  RH WIND       PRES   REMARKS
GERALDTON      LGT SNOW  25  21  86 N5        29.92R WCI  19
THUNDER BAY    FLURRIES  30  27  86 NW8       29.99R WCI  23
SIOUX LOOKOUT  PTSUNNY   25   9  50 NW6       30.00F WCI  18
TORONTO        DRIZZLE   39  37  93 SE5       30.01F FOG
BIG TROUT LK   SUNNY      7 -11  43 NW13      30.02F WCI  -9
PICKLE LAKE    MOSUNNY   21   5  49 NW3       29.97S
DRYDEN         SUNNY     27   9  46 W9        30.00F WCI  17
KENORA         MOSUNNY   23   7  50 NW6       30.05S WCI  16
$$
                *** MANITOBA***

CITY           SKY/WX    TMP DP  RH WIND       PRES   REMARKS
BRANDON        PTSUNNY   16   9  73 W14       30.14S WCI   1
DAUPHIN        SUNNY     16   9  73 W12       30.09F WCI   3
ISLAND LAKE    PTSUNNY    9  -9  43 W5        30.07F WCI   0
PILOT MOUND      N/A     12   5  73 W7          N/A  WCI   2
THE PAS        MOSUNNY   25   7  46 SW14      29.96F WCI  13
THOMPSON       PTSUNNY    9  -8  47 S8        29.94F WCI  -4
WINNIPEG       SUNNY     16   5  62 NW6       30.16F WCI   7
LYNN LAKE      MOSUNNY   18   7  62 S13G18    29.74F WCI   4
CHURCHILL      SUNNY    -11 -22  58 SW7       30.00F WCI -26
GILLAM         MOSUNNY   -4 -17  54 N3        30.03F
$$
                ***SASKATCHEWAN***

CITY           SKY/WX    TMP DP  RH WIND       PRES   REMARKS
ESTEVAN        PTSUNNY   12   5  73 SW13      30.12F WCI  -3
KINDERSLEY     MOSUNNY   16   7  67 S15G24    29.80F WCI   1
LLOYDMINSTER   PTSUNNY   14   7  73 S17       29.69F WCI  -3
PRINCE ALBERT  MOSUNNY   16   5  62 SW15      29.93F WCI   1
REGINA         MOSUNNY   19  10  68 SW15G21   30.03F WCI   5
YORKTON        SUNNY     12   5  73 SW10      30.05F WC



USA.gov is the U.S. government's official web portal to all federal, state and local government web resources and services.